Starlink 2433

operational
NORAD ID: 47841 Int'l Des: 2021-018 Owner: SPXS Country: US Constellation: starlink
LEOCIRCULARSTARLINK_TYPE

Über Starlink 2433

Beschreibung wird geladen...

Live-Position

3D-Globus wird geladen...

Nächste Überflüge

Höhenverlauf

Altitude vs Time

uPlot chart will show altitude changes over time

Zweizeiliger Elementsatz

1 47841U 21018BG 25260.44138592 -.00001740 00000-0 -97954-4 0 9999
2 47841 53.0528 289.3593 0001291 103.0412 257.0721 15.06393745250769
Epoch: 17. Sept. 2025 • Age: 20 hours

Aktueller Status

Höhe 557.2 km
Geschwindigkeit 7.58 km/s
Subsatellitenpunkt -31.15°S, 34.93°E
Startdatum 11. März 2021
Alter 4.5 years
Typ internet

Technische Details

Klassifizierung Payload
Masse 260.00 kg
Trockenmasse 248.00 kg
Gesamtmasse 260.00 kg
Länge 0.20 m
Durchmesser 2.80 m
Spannweite 9.00 m
Form Box + pan
Hersteller SPXS
Bus-Typ Starlink
Phasenstatus In Orbit
Besitzer/Staat SPXS/US

Große Konstellationen

Loading constellations...